Flag for Argentina Weather past 2 weeks in Comodoro Rivadavia, Chubut, Argentina

Now
79 °F

Passing clouds.


Feels Like: 79 °F
Forecast: 61 / 79 °F
Wind: 12 mph from Northwest

Location: Comodoro Rivadavia Aerodrome

Current Time: Mar 28, 2015 at 4:33:57 PM

Latest Report: Mar 28, 2015 at 4:00 PM


Visibility: N/A

Pressure: 29.71 "Hg

Humidity: 32%

Dew point: 46 °F

Location of Comodoro RivadaviaLocation

Historic Weather in Comodoro Rivadavia — Graph

°F

Comodoro Rivadavia temperature yesterday

Maximum temperature yesterday: 84 °F (at 4:00 PM)
Minimum temperature yesterday: 52 °F (at 2:00 AM)
Average temperature yesterday: 69 °F

Past Weeks' High & Low Weather Summary

 TemperatureHumidityPressure
High84 °F (Mar 16, 2:00 PM)94% (Mar 26, 11:00 PM)30.42 "Hg (Mar 26, 11:00 PM)
Low41 °F (Mar 25, 6:00 AM)12% (Mar 18, 3:00 PM)29.30 "Hg (Mar 16, 2:00 PM)
Average60 °F47%29.97 "Hg
* Reported Mar 13 3:00 PM — Mar 28 3:00 PM, Comodoro Rivadavia, Weather by CustomWeather, © 2015

Note: Actual official high and low records may vary slightly from our data, if they occured in-between our weather recording intervals... More about our weather records

Advertising

Comodoro Rivadavia weather history for previous 24 hours

 ConditionsComfort  
Time TempWeatherWind HumidityBarometerVisibility
3:00 PM
Sat, Mar 28
79 °FPassing clouds.14 mph30%29.74 "HgN/A
2:00 PM77 °FPassing clouds.8 mph30%29.77 "HgN/A
1:00 PM75 °FPassing clouds.7 mph36%29.80 "HgN/A
12:00 PM73 °FSunny.9 mph38%29.83 "Hg10 mi
11:00 AM72 °FSunny.14 mph41%29.83 "Hg10 mi
10:00 AM68 °FSunny.12 mph40%29.86 "Hg10 mi
9:00 AM66 °FPassing clouds.5 mph52%29.86 "HgN/A
8:00 AM64 °FSunny.13 mph46%29.86 "Hg10 mi
7:00 AM66 °FPassing clouds.12 mph43%29.83 "HgN/A
6:00 AM64 °FClear.8 mph49%29.86 "Hg10 mi
5:00 AM63 °FClear.12 mph49%29.83 "Hg10 mi
4:00 AM63 °FClear.12 mph52%29.83 "Hg10 mi
3:00 AM64 °FClear.10 mph49%29.83 "Hg10 mi
2:00 AM66 °FClear.18 mph46%29.83 "Hg10 mi
1:00 AM68 °FClear.23 mph43%29.83 "Hg10 mi
12:00 AM68 °FClear.21 mph46%29.83 "Hg10 mi
11:00 PM
Fri, Mar 27
70 °FClear.16 mph40%29.83 "Hg10 mi
10:00 PM73 °FClear.14 mph33%29.83 "Hg10 mi
9:00 PM73 °FClear.13 mph31%29.80 "Hg10 mi
8:00 PM77 °FClear.16 mph26%29.77 "Hg10 mi
7:00 PM79 °FClear.15 mph26%29.77 "Hg10 mi
6:00 PM82 °FSunny.21 mph15%29.77 "Hg10 mi
5:00 PM84 °FSunny.17 mph18%29.77 "Hg10 mi
4:00 PM84 °FSunny.15 mph19%29.77 "Hg10 mi
Weather by CustomWeather, © 2015

See weather overviewHow to use our weather pages